Sally Plumb Plumb

Silver Star - 3,311 Points (23 9 1940 / Haverhill Suffolk England)

Stats

» Click to list general statistics » OR, select a date :

General Statistics

Visitors of the poet

Number of visitors of the poet’s mainpage in PoemHunter.Com

Attention : Numbers in this table does not indicate the total hits of poems of the poet, but indicates the hits of the poet’s main page.

Date Hits
06/26/2017 Monday 562
100%
06/25/2017 Sunday 164
29%
06/24/2017 Saturday 160
28%
06/23/2017 Friday 152
27%
06/22/2017 Thursday 116
20%
06/21/2017 Wednesday 101
17%
06/20/2017 Tuesday 109
19%
06/19/2017 Monday 86
15%
06/18/2017 Sunday 102
18%
06/17/2017 Saturday 136
24%
06/16/2017 Friday 145
25%
06/15/2017 Thursday 140
24%
06/14/2017 Wednesday 100
17%
06/13/2017 Tuesday 117
20%
06/12/2017 Monday 194
34%
06/11/2017 Sunday 87
15%
06/10/2017 Saturday 104
18%
06/09/2017 Friday 126
22%
06/08/2017 Thursday 143
25%
06/07/2017 Wednesday 118
20%

Reader rating & num.of MyPoemList’s

Click the captions of columns to change the order.

# Poem Title Submit Date Reader Rating Num.of MyPoemList’s
Rating Num.R.
1 Untitled 03/31/2017 9.0 1 0
2 Halt 12/08/2016 -- 0 0
3 Pair 12/07/2016 -- 0 0
4 Midnight 04/24/2016 10.0 1 0
5 Choice 04/23/2016 10.0 1 0
6 Escape 04/22/2016 -- 0 0
7 Refugee 02/21/2016 -- 0 0
8 Jacobs Ladder 02/20/2016 -- 0 0
9 The Big Cheat 02/19/2016 -- 0 0
10 Squaw 11/01/2015 10.0 3 1
11 Division 10/06/2015 -- 0 0
12 Vanity 08/25/2015 -- 0 0
13 Your Call 08/25/2015 -- 0 0
14 United 06/27/2015 -- 0 0
15 Sacrifice 06/27/2015 -- 0 0
16 Prayer For Night 06/27/2015 -- 0 0
17 Rocker Song 03/31/2015 -- 0 0
18 Nightwatch 11/04/2014 10.0 1 0
19 A Boy And A Frog (Kids Stuff) 10/23/2014 -- 0 1
20 The Slow Walk 08/09/2014 10.0 1 0
21 After 08/08/2014 -- 0 0
22 The Contest 06/05/2014 -- 0 0
23 Barn Owl 05/09/2014 10.0 1 0
24 Listen 05/08/2014 -- 0 0
25 Harmony 05/07/2014 10.0 1 0
26 Conflict 02/24/2014 10.0 2 0
27 Confession 02/11/2014 -- 0 0
28 Night Bird 02/07/2014 -- 0 0
29 Ebb Tide 02/03/2014 10.0 1 0
30 Many Hollows 01/03/2014 7.5 2 0
31 Night Ways 01/02/2014 -- 0 0
32 The Lion 01/01/2014 7.0 1 0
33 The Appointment 12/24/2013 -- 0 0
34 Flippancy 12/22/2013 9.0 2 0
35 Hit 12/21/2013 10.0 1 0
36 Negativity 11/11/2013 10.0 2 0
37 Too Old 10/28/2013 10.0 3 0
38 Three Phases 09/28/2013 10.0 1 0
39 Frightened Fourteen (Kids Stuff) 09/27/2013 10.0 1 0
40 Killing Time 09/23/2013 8.5 2 0
41 Rumour 08/30/2013 -- 0 0
42 Separation 08/14/2013 10.0 3 2
43 Shades Of Love 08/01/2013 10.0 4 1
44 Getting Fat 06/28/2013 9.7 3 0
45 Infinity 05/08/2013 9.8 11 1
46 Twilight 03/30/2013 10.0 4 2
47 Mind Healer 03/19/2013 9.5 2 0
48 Mute 03/18/2013 9.5 4 0
49 Down The Drain 03/07/2013 9.7 3 0
50 Monday Morning 03/06/2013 10.0 1 0
51 Imagination 03/05/2013 10.0 1 0
52 Earth Fire 12/08/2012 10.0 1 0
53 Nightmare 10/20/2012 10.0 2 0
54 Workday Weekday 10/17/2012 -- 0 0
55 Remorse 10/07/2012 -- 0 0
56 High Hopes 10/06/2012 -- 0 0
57 Lost For Words 10/04/2012 10.0 1 0
58 Confused? 08/15/2012 -- 0 0
59 Breakdown 08/14/2012 10.0 4 0
60 Departure 08/07/2012 10.0 2 0
61 Seagull 07/11/2012 10.0 4 0
62 Late Friday Night 06/29/2012 9.7 3 0
63 Rig Divers North Sea 06/28/2012 -- 0 0
64 Gossips 06/27/2012 10.0 3 0
65 Another Shade Of Blue 06/27/2012 10.0 5 1
66 Score 04/22/2012 10.0 2 0
67 Request 04/21/2012 10.0 1 0
68 Tough Love 04/18/2012 10.0 3 0
69 Stairway 03/23/2012 10.0 1 0
70 Wind And Rain 02/20/2012 10.0 3 0
71 Dawn 02/09/2012 -- 0 0
72 Defeat 02/08/2012 7.0 3 0
73 Jack Spratt 12/27/2011 9.7 3 0
74 Beyond 12/06/2011 -- 0 0
75 Undressed 12/05/2011 -- 0 0
76 Letter 11/28/2011 10.0 1 0
77 Fantasia 11/24/2011 -- 0 0
78 Betrayel 11/22/2011 -- 0 0
79 Grandmama 11/21/2011 -- 0 0
80 Crimes 11/01/2011 9.7 3 0
81 Swing High Swing Low 10/07/2011 10.0 1 1
82 Destiny 10/05/2011 10.0 1 0
83 Silken Thread 10/02/2011 -- 0 0
84 Seeing You 10/01/2011 10.0 1 0
85 Fractions 09/30/2011 -- 0 0
86 Question 09/28/2011 -- 0 0
87 Birth 09/09/2011 -- 0 0
88 The Voice Of Seduction 09/07/2011 -- 0 0
89 Second Depression 08/10/2011 -- 0 0
90 Crumbs 08/06/2011 10.0 1 0
91 Night Sky 07/08/2011 9.3 3 0
92 The Social Divide 07/04/2011 -- 0 0
93 Retort 07/01/2011 10.0 1 0
94 Mr Jones 06/15/2011 -- 0 0
95 Bitter Beginning 06/13/2011 -- 0 0
96 Imagine 06/03/2011 -- 0 0
97 Gabriel 06/02/2011 -- 0 0
98 The Shift Worker 05/25/2011 8.0 1 0
99 Downtown 05/20/2011 -- 0 0
100 Skin 05/19/2011 -- 0 0
101 Natural Tempo 05/18/2011 10.0 2 0
102 Magical Night 04/14/2011 10.0 1 0
103 Conversation 04/12/2011 -- 0 0
104 Aunt Summer Rose (Kids Stuff) 04/08/2011 -- 0 0
105 Eden's Gate 04/07/2011 -- 0 0
106 First Season 03/29/2011 -- 0 0
107 November 03/09/2011 10.0 1 0
108 Chores 03/08/2011 10.0 1 0
109 Torment 03/05/2011 -- 0 0
110 Over Time 02/19/2011 -- 0 0
111 The Thaw 02/18/2011 10.0 1 0
112 Jukes Song 02/14/2011 -- 0 0
113 Thinks Party 02/12/2011 10.0 2 1
114 Predator 02/11/2011 -- 0 0
115 Headless 02/08/2011 6.0 1 0
116 Annie May 01/06/2011 10.0 1 0
117 Look 01/05/2011 -- 0 0
118 Slough Of Despond 12/11/2010 10.0 2 0
119 The Dryad 12/04/2010 10.0 1 0
120 Christmas Day 12/03/2010 10.0 1 0
121 Snake Skin 12/01/2010 10.0 1 0
122 Opposition 11/12/2010 -- 0 0
123 Natures Way 10/13/2010 -- 0 0
124 Bad Rivers 10/12/2010 10.0 4 0
125 Calling Wind 10/01/2010 9.8 4 0
126 Decision 09/23/2010 10.0 1 0
127 Passing Tedious Time 08/26/2010 -- 0 0
128 Zero 08/10/2010 10.0 3 0
129 1957 08/04/2010 9.5 4 0
130 Singing Lesson 08/02/2010 -- 0 0
131 Evening At Home 06/29/2010 10.0 2 0
132 Not Tonight 06/28/2010 -- 0 0
133 6 P.M. 06/08/2010 9.5 2 0
134 Orange 06/01/2010 10.0 1 0
135 Yellow Iris 05/23/2010 10.0 1 0
136 Shower 05/22/2010 -- 0 0
137 Reunion 05/17/2010 -- 0 0
138 Shadow 05/16/2010 10.0 1 0
139 Explanation 05/15/2010 -- 0 0
140 Spirit 05/14/2010 10.0 2 1
141 The Haunted 05/13/2010 10.0 1 0
142 Live Music 05/13/2010 10.0 1 0
143 Wren 03/13/2010 10.0 1 0
144 Spring Weather 03/12/2010 -- 0 0
145 Breathing 02/09/2010 10.0 3 1
146 Unfamiliar Fantasy 01/22/2010 10.0 1 0
147 Climate Change 12/26/2009 10.0 1 0
148 Missing Person 12/25/2009 -- 0 0
149 Languor 12/24/2009 10.0 1 0
150 Side Affects 12/23/2009 10.0 2 0
151 Unspeakable 12/22/2009 10.0 1 0
152 Summer 12/14/2009 10.0 1 0
153 High 12/12/2009 -- 0 0
154 Speechless 12/05/2009 10.0 2 1
155 Insight 11/14/2009 10.0 3 0
156 The Haunted Sea (Kids Stuff) 11/05/2009 10.0 2 0
157 Flight 10/15/2009 10.0 3 0
158 Ripple 10/09/2009 10.0 1 0
159 Perfect Silence 10/07/2009 8.9 7 1
160 Starters 10/02/2009 10.0 1 0
161 Pastel 09/24/2009 10.0 3 0
162 Sleep 09/18/2009 10.0 4 0
163 Spirit Wings 09/07/2009 10.0 1 0
164 Annoyance 09/05/2009 10.0 3 0
165 Lyric 09/02/2009 10.0 3 0
166 Weeping Willow 08/29/2009 9.5 2 3
167 Ritual 08/12/2009 10.0 1 0
168 Enrichment 08/10/2009 10.0 1 0
169 Recruit 07/30/2009 10.0 1 0
170 Bebe 07/29/2009 10.0 3 1
171 Music 07/28/2009 10.0 2 0
172 Saturday Night And Sunday Morning 07/22/2009 -- 0 1
173 The Red Indian 07/10/2009 10.0 1 0
174 Be Kind Be Sweet 07/08/2009 9.5 2 1
175 Late Afternoon 07/07/2009 10.0 1 0
176 Left Undead 07/06/2009 -- 0 0
177 Cloud 07/02/2009 10.0 3 2
178 Foxglove 06/28/2009 10.0 1 0
179 The Chain 06/17/2009 -- 0 0
180 Song Of A Dying Infant 06/03/2009 10.0 1 0
181 Confrontation (Darfur) 05/29/2009 10.0 5 0
182 Late Summer 05/18/2009 -- 0 1
183 A Question Of God 05/17/2009 9.6 11 1
184 Death Of A Woman 05/12/2009 7.8 4 0
185 Angels 05/09/2009 10.0 6 1
186 A Dark Fire 05/08/2009 10.0 7 1
187 Fight 05/07/2009 10.0 2 0
188 We Are 05/06/2009 10.0 4 0
189 Shadow Street 05/05/2009 7.3 3 0
190 Rendezvous 05/04/2009 9.5 2 0
191 Lifting 05/03/2009 10.0 1 0
192 A Humorous Death 05/02/2009 10.0 11 3
193 Thought 05/01/2009 9.5 4 0
194 Leaving 04/30/2009 -- 0 0
195 The Queue 04/29/2009 10.0 1 0
196 Granpa 04/28/2009 10.0 1 0
197 Two Confused 04/27/2009 10.0 1 1
198 Breakfast 04/26/2009 9.7 7 1
199 Happiness Is Sacred 04/25/2009 10.0 1 0
200 Crucible 04/24/2009 9.7 3 0
201 Valentine 04/23/2009 10.0 2 1
202 Hettie 04/06/2009 10.0 2 0
203 Six A.M. 04/04/2009 -- 0 0
204 Diary 04/01/2009 9.3 3 2
205 Possession 03/31/2009 10.0 1 1
206 Pretence 03/30/2009 10.0 1 1
207 Sundial 03/29/2009 7.5 4 0
208 Sleep My Love 03/28/2009 10.0 2 2
209 Reynard 03/27/2009 -- 0 0
210 Lucifer 03/26/2009 -- 0 0
211 Picture 03/25/2009 10.0 1 2
212 Dream On 03/24/2009 10.0 1 2
213 Something Plus 03/23/2009 -- 0 1
214 Love 03/22/2009 10.0 1 0
215 Curse 03/21/2009 -- 0 0
216 Solitude 03/20/2009 10.0 1 1
217 Anger 03/19/2009 10.0 2 2
218 Moon Song 03/18/2009 10.0 2 2
219 Winter 03/15/2009 9.8 5 1
220 Summer Shade 03/15/2009 9.3 3 1
221 Skylark 03/15/2009 10.0 1 0
222 Simplicity 03/14/2009 10.0 1 0
223 Snowdrops 03/14/2009 10.0 1 2
224 Upside Down 03/14/2009 10.0 2 0
225 The Native 03/14/2009 10.0 2 0
226 Search 03/14/2009 10.0 2 0
227 Surprise Suprise 03/14/2009 10.0 1 0
228 Changeover 03/14/2009 10.0 3 1
229 He Is 03/14/2009 10.0 3 0
230 Guide 03/14/2009 10.0 2 1
231 Vow 03/14/2009 10.0 3 0
232 Cats 03/14/2009 9.5 2 1
233 Love After Death 03/14/2009 10.0 1 1
234 The Juveniles 03/14/2009 10.0 2 0
235 Serenade 03/14/2009 10.0 1 0
236 Poppies 03/14/2009 10.0 2 0
237 May 03/14/2009 10.0 1 0
238 Village Tree 03/14/2009 9.5 2 0
239 Sunrise 03/14/2009 10.0 4 1
240 Sparrows 03/14/2009 10.0 3 0
241 Figment 03/14/2009 10.0 2 1
242 A Slow Smoke 03/14/2009 9.8 4 1
243 Time Past 03/14/2009 10.0 2 2
244 Good Night 03/14/2009 10.0 2 1
245 The Satyr 03/14/2009 10.0 1 0
246 Somewhere 03/14/2009 10.0 1 1
247 Formation 03/14/2009 -- 0 1
248 Wildflowers Live On 03/14/2009 10.0 4 2
249 Apple Tree 03/14/2009 10.0 9 2
250 Purer Than White 03/14/2009 10.0 2 0
251 Goodnight Baby Love 03/14/2009 10.0 1 1
252 Storm 03/14/2009 10.0 1 2
253 Headstones 03/14/2009 10.0 1 0
254 Underfoot 03/14/2009 10.0 1 0
255 Fantasy 03/14/2009 10.0 3 1
256 Smile 03/14/2009 10.0 2 2
257 Judas 03/14/2009 10.0 1 0
258 Domestic 03/14/2009 10.0 2 0
259 Ghost 03/14/2009 10.0 2 2
260 Rowley 03/14/2009 -- 0 0
261 Starless 03/14/2009 10.0 2 2
262 Reflection 03/14/2009 -- 0 2
263 Pretty 03/14/2009 9.0 2 1
[Report Error]